TAP224 LPPT-LPFR

Flight info

Callsign TAP224
Flight time 0h 28m
Altitude 23000
Route DUZOP DCT ODEMI
Aircraft A320/M-SDE3FGHIRWY/LB1

Departure

Time 2026-05-07 12:17
Airport Lisbon Humberto Delgado Airport (LPPT)

Arrival

Time 2026-05-07 12:45
Airport Faro - Gago Coutinho International Airport (LPFR)
Time Latitude Longitude Altitude Speed Heading
2026-05-07 12:16 38.78437 -9.13414 737 ft 174 kts 22°
2026-05-07 12:17 38.79552 -9.12758 1734 ft 179 kts 19°
2026-05-07 12:17 38.80761 -9.12097 2443 ft 201 kts 19°
2026-05-07 12:17 38.82129 -9.11378 3210 ft 229 kts 23°
2026-05-07 12:17 38.83595 -9.10338 4119 ft 252 kts 32°
2026-05-07 12:18 38.85110 -9.09078 5275 ft 265 kts 33°
2026-05-07 12:18 38.86671 -9.07733 6433 ft 276 kts 40°
2026-05-07 12:18 38.87895 -9.05831 7552 ft 281 kts 68°
2026-05-07 12:18 38.88207 -9.03373 8733 ft 283 kts 98°
2026-05-07 12:19 38.87578 -9.00995 9988 ft 284 kts 122°
2026-05-07 12:19 38.86359 -8.98933 10896 ft 299 kts 137°
2026-05-07 12:19 38.84553 -8.97471 11546 ft 320 kts 160°
2026-05-07 12:19 38.82310 -8.96922 12178 ft 339 kts 180°
2026-05-07 12:20 38.79936 -8.97358 12967 ft 350 kts 199°
2026-05-07 12:20 38.77713 -8.98699 13889 ft 358 kts 211°
2026-05-07 12:20 38.75478 -9.00172 14782 ft 364 kts 207°
2026-05-07 12:20 38.73191 -9.01529 15675 ft 370 kts 206°
2026-05-07 12:21 38.70814 -9.02880 16605 ft 376 kts 206°
2026-05-07 12:21 38.68389 -9.04209 17514 ft 382 kts 205°
2026-05-07 12:21 38.65922 -9.05532 18372 ft 387 kts 206°
2026-05-07 12:21 38.63411 -9.06866 19143 ft 392 kts 206°
2026-05-07 12:22 38.60882 -9.08212 19917 ft 396 kts 206°
2026-05-07 12:22 38.58250 -9.09352 20684 ft 405 kts 194°
2026-05-07 12:22 38.55408 -9.09501 21455 ft 416 kts 176°
2026-05-07 12:22 38.52598 -9.08479 22152 ft 429 kts 158°
2026-05-07 12:23 38.50052 -9.06395 22723 ft 439 kts 147°
2026-05-07 12:23 38.47580 -9.04091 22905 ft 441 kts 146°
2026-05-07 12:23 38.45074 -9.01733 22944 ft 452 kts 146°
2026-05-07 12:23 38.42528 -8.99335 22943 ft 455 kts 146°
2026-05-07 12:24 38.39976 -8.96935 22946 ft 456 kts 146°
2026-05-07 12:24 38.37420 -8.94538 22946 ft 456 kts 146°
2026-05-07 12:24 38.35470 -8.92715 22933 ft 445 kts 147°
2026-05-07 12:24 38.35365 -8.92616 22933 ft 444 kts 147°
2026-05-07 12:25 38.32944 -8.90361 22937 ft 432 kts 147°
2026-05-07 12:25 38.30513 -8.88114 22935 ft 429 kts 147°
2026-05-07 12:25 38.28100 -8.85897 22946 ft 428 kts 147°
2026-05-07 12:25 38.25687 -8.83681 22945 ft 427 kts 147°
2026-05-07 12:26 38.23278 -8.81463 22943 ft 427 kts 147°
2026-05-07 12:26 38.20874 -8.79247 22945 ft 427 kts 147°
2026-05-07 12:26 38.18467 -8.77025 22936 ft 427 kts 147°
2026-05-07 12:26 38.16062 -8.74802 22937 ft 427 kts 147°
2026-05-07 12:27 38.13660 -8.72582 22942 ft 427 kts 147°
2026-05-07 12:27 38.11258 -8.70365 22941 ft 427 kts 147°
2026-05-07 12:27 38.08850 -8.68149 22927 ft 428 kts 147°
2026-05-07 12:27 38.06435 -8.65933 22922 ft 429 kts 147°
2026-05-07 12:28 38.04017 -8.63720 22914 ft 429 kts 147°
2026-05-07 12:28 38.01623 -8.61531 22913 ft 429 kts 147°
2026-05-07 12:28 37.99201 -8.59312 22889 ft 430 kts 147°
2026-05-07 12:28 37.96778 -8.57094 22896 ft 429 kts 147°
2026-05-07 12:29 37.94353 -8.54875 22897 ft 430 kts 147°
2026-05-07 12:29 37.91930 -8.52654 22913 ft 430 kts 147°
2026-05-07 12:29 37.89501 -8.50435 22917 ft 431 kts 147°
2026-05-07 12:29 37.87065 -8.48213 22895 ft 431 kts 147°
2026-05-07 12:30 37.84629 -8.45988 22898 ft 431 kts 147°
2026-05-07 12:30 37.82196 -8.43768 22899 ft 431 kts 147°
2026-05-07 12:30 37.79760 -8.41546 22903 ft 431 kts 147°
2026-05-07 12:30 37.77324 -8.39328 22852 ft 431 kts 147°
2026-05-07 12:31 37.74945 -8.37164 21748 ft 426 kts 147°
2026-05-07 12:31 37.72542 -8.34980 20625 ft 423 kts 147°
2026-05-07 12:31 37.70209 -8.32856 20121 ft 404 kts 147°
2026-05-07 12:31 37.67961 -8.30811 19583 ft 393 kts 147°
2026-05-07 12:32 37.65771 -8.28825 19041 ft 383 kts 147°
2026-05-07 12:32 37.63630 -8.26889 18527 ft 376 kts 147°
2026-05-07 12:32 37.61497 -8.24963 17965 ft 378 kts 147°
2026-05-07 12:32 37.59358 -8.23034 17407 ft 377 kts 147°
2026-05-07 12:33 37.55104 -8.19198 16376 ft 375 kts 146°
2026-05-07 12:33 37.52989 -8.17292 15859 ft 374 kts 146°
2026-05-07 12:33 37.50877 -8.15387 15345 ft 372 kts 146°
2026-05-07 12:34 37.48773 -8.13493 14832 ft 371 kts 146°
2026-05-07 12:34 37.46677 -8.11608 14321 ft 368 kts 146°
2026-05-07 12:34 37.44622 -8.09758 13814 ft 359 kts 145°
2026-05-07 12:34 37.42613 -8.07951 13279 ft 350 kts 145°
2026-05-07 12:35 37.40659 -8.06193 12781 ft 341 kts 145°
2026-05-07 12:35 37.38779 -8.04503 12302 ft 333 kts 145°
2026-05-07 12:35 37.36914 -8.02830 11816 ft 328 kts 145°
2026-05-07 12:35 37.35052 -8.01166 11329 ft 328 kts 145°
2026-05-07 12:36 37.33189 -7.99501 10838 ft 328 kts 145°
2026-05-07 12:36 37.31328 -7.97836 10351 ft 328 kts 145°
2026-05-07 12:36 37.29494 -7.96191 10182 ft 317 kts 146°
2026-05-07 12:36 37.27730 -7.94609 10059 ft 305 kts 146°
2026-05-07 12:37 37.26029 -7.93085 9880 ft 297 kts 145°
2026-05-07 12:37 37.24360 -7.91595 9616 ft 292 kts 146°
2026-05-07 12:37 37.22697 -7.90115 9153 ft 293 kts 146°
2026-05-07 12:37 37.21045 -7.88647 8773 ft 290 kts 146°
2026-05-07 12:38 37.19387 -7.87167 8319 ft 291 kts 145°
2026-05-07 12:38 37.17766 -7.85715 7812 ft 284 kts 145°
2026-05-07 12:38 37.16171 -7.84283 7168 ft 279 kts 144°
2026-05-07 12:38 37.14601 -7.82880 6650 ft 274 kts 144°
2026-05-07 12:39 37.13055 -7.81504 6146 ft 271 kts 144°
2026-05-07 12:39 37.11542 -7.80162 5666 ft 269 kts 144°
2026-05-07 12:39 37.10020 -7.78814 5187 ft 269 kts 145°
2026-05-07 12:39 37.08490 -7.77460 4702 ft 269 kts 145°
2026-05-07 12:40 37.06959 -7.76101 4254 ft 268 kts 145°
2026-05-07 12:40 37.05454 -7.74763 4008 ft 262 kts 145°
2026-05-07 12:40 37.03897 -7.73599 3997 ft 262 kts 161°
2026-05-07 12:40 37.02132 -7.73359 3999 ft 248 kts 188°
2026-05-07 12:41 37.00607 -7.74056 3997 ft 223 kts 213°
2026-05-07 12:41 36.99528 -7.75360 4003 ft 212 kts 236°
2026-05-07 12:41 36.98962 -7.76952 4001 ft 198 kts 256°
2026-05-07 12:41 36.98881 -7.78633 4019 ft 187 kts 275°
2026-05-07 12:42 36.99091 -7.80144 4004 ft 165 kts 279°
2026-05-07 12:42 36.99283 -7.81474 3909 ft 150 kts 279°
2026-05-07 12:42 36.99465 -7.82744 3501 ft 152 kts 278°
2026-05-07 12:42 36.99655 -7.84074 2995 ft 157 kts 279°
2026-05-07 12:43 36.99851 -7.85439 2377 ft 161 kts 277°
2026-05-07 12:43 37.00051 -7.86837 1750 ft 165 kts 278°
2026-05-07 12:43 37.00247 -7.88204 1320 ft 154 kts 277°
2026-05-07 12:43 37.00423 -7.89457 1102 ft 141 kts 277°
2026-05-07 12:44 37.00592 -7.90633 906 ft 134 kts 276°
2026-05-07 12:44 37.00760 -7.91761 723 ft 130 kts 277°
2026-05-07 12:44 37.00928 -7.92872 554 ft 130 kts 274°
2026-05-07 12:44 37.01079 -7.93975 384 ft 129 kts 275°
2026-05-07 12:45 37.01228 -7.95074 200 ft 127 kts 276°
2026-05-07 12:45 37.01386 -7.96157 34 ft 125 kts 276°
2026-05-07 12:45 37.01509 -7.97053 20 ft 68 kts 280°
2026-05-07 12:45 37.01554 -7.97383 19 ft 32 kts 279°
2026-05-07 12:46 37.01595 -7.97674 19 ft 26 kts 283°
2026-05-07 12:46 37.01639 -7.97844 20 ft 15 kts 320°
2026-05-07 12:46 37.01714 -7.97820 20 ft 6 kts 44°
2026-05-07 12:46 37.01738 -7.97784 20 ft 5 kts 54°
2026-05-07 12:47 37.01752 -7.97747 20 ft 6 kts 69°
2026-05-07 12:47 37.01770 -7.97644 20 ft 18 kts 87°
2026-05-07 12:47 37.01757 -7.97491 22 ft 16 kts 91°
2026-05-07 12:47 37.01819 -7.97386 20 ft 15 kts 31°
2026-05-07 12:48 37.01851 -7.97345 20 ft 0 kts 77°
2026-05-07 12:48 37.01853 -7.97322 20 ft 0 kts 90°
2026-05-07 12:48 37.01844 -7.97294 20 ft 7 kts 127°
2026-05-07 12:49 37.01799 -7.97266 23 ft 7 kts 160°
2026-05-07 12:49 37.01788 -7.97261 21 ft 0 kts 160°
2026-05-07 12:50 36.98982 -7.76851 4003 ft 197 kts 255°
2026-05-07 12:51 37.01012 -7.93473 10 ft 0 kts 273°